| time (UTC) | temp F | wind direction | speed MPH | gust MPH | rain 1hr in | rain 24hr in | rain mn in | humidity % | barometer mb |
| 20260905025523 | 59 | 328 | 2.0 | 5.0 | 0.00 | 0.20 | 0.05 | 65 | 1019.2 |
| 20260905025030 | 59 | 336 | 0.0 | 4.0 | 0.00 | 0.20 | 0.05 | 66 | 1019.1 |
| 20260905024526 | 59 | 345 | 2.0 | 5.0 | 0.00 | 0.20 | 0.05 | 66 | 1019.0 |
| 20260905024036 | 59 | 355 | 2.0 | 5.0 | 0.00 | 0.20 | 0.05 | 66 | 1019.1 |
| 20260905023525 | 59 | 360 | 2.0 | 6.0 | 0.00 | 0.20 | 0.05 | 65 | 1019.1 |
| 20260905023022 | 60 | 340 | 3.0 | 6.0 | 0.00 | 0.20 | 0.05 | 65 | 1019.1 |
| 20260905022532 | 60 | 341 | 2.0 | 5.0 | 0.00 | 0.20 | 0.05 | 66 | 1019.1 |
| 20260905022022 | 60 | 339 | 2.0 | 6.0 | 0.00 | 0.20 | 0.05 | 65 | 1019.1 |
| 20260905021532 | 60 | 349 | 3.0 | 6.0 | 0.00 | 0.20 | 0.05 | 64 | 1018.9 |
| 20260905021028 | 60 | 321 | 3.0 | 6.0 | 0.00 | 0.20 | 0.05 | 64 | 1019.0 |
| 20260905020537 | 60 | 5 | 3.0 | 6.0 | 0.00 | 0.20 | 0.05 | 64 | 1018.9 |
| 20260905020033 | 60 | 348 | 3.0 | 5.0 | 0.00 | 0.20 | 0.05 | 63 | 1018.9 |
| 20260905015524 | 60 | 340 | 2.0 | 4.0 | 0.00 | 0.20 | 0.05 | 63 | 1019.0 |
| 20260905015030 | 61 | 351 | 2.0 | 4.0 | 0.00 | 0.20 | 0.05 | 62 | 1019.1 |
| 20260905014527 | 61 | 336 | 0.0 | 0.0 | 0.00 | 0.20 | 0.05 | 61 | 1019.0 |
| 20260905014036 | 61 | 336 | 0.0 | 0.0 | 0.00 | 0.20 | 0.05 | 62 | 1018.9 |
| 20260905013529 | 62 | 336 | 0.0 | 1.0 | 0.00 | 0.20 | 0.05 | 59 | 1018.8 |
| 20260905013023 | 61 | 336 | 0.0 | 1.0 | 0.00 | 0.20 | 0.05 | 59 | 1018.7 |
| 20260905012531 | 62 | 336 | 0.0 | 3.0 | 0.00 | 0.20 | 0.05 | 59 | 1018.8 |
| 20260905012021 | 62 | 333 | 1.0 | 3.0 | 0.00 | 0.20 | 0.05 | 57 | 1018.7 |
| 20260905011537 | 62 | 327 | 1.0 | 6.0 | 0.00 | 0.20 | 0.05 | 58 | 1018.7 |
| 20260905011028 | 62 | 360 | 2.0 | 6.0 | 0.00 | 0.20 | 0.05 | 57 | 1018.6 |
| 20260905010519 | 62 | 36 | 3.0 | 8.0 | 0.00 | 0.20 | 0.05 | 57 | 1018.6 |
| 20260905010042 | 62 | 53 | 3.0 | 8.0 | 0.00 | 0.20 | 0.05 | 56 | 1018.6 |
| 20260905005523 | 62 | 36 | 3.0 | 6.0 | 0.00 | 0.20 | 0.05 | 57 | 1018.7 |
| 20260905005035 | 62 | 360 | 2.0 | 6.0 | 0.00 | 0.20 | 0.05 | 57 | 1018.7 |
| 20260905004532 | 62 | 36 | 3.0 | 6.0 | 0.00 | 0.20 | 0.05 | 56 | 1018.7 |
| 20260905004018 | 62 | 340 | 1.0 | 3.0 | 0.00 | 0.20 | 0.05 | 56 | 1018.6 |
| 20260905003530 | 62 | 95 | 1.0 | 3.0 | 0.00 | 0.20 | 0.05 | 56 | 1018.7 |
| 20260905003028 | 62 | 205 | 0.0 | 1.0 | 0.00 | 0.20 | 0.05 | 57 | 1018.7 |
| 20260905002534 | 62 | 205 | 0.0 | 2.0 | 0.00 | 0.20 | 0.05 | 56 | 1018.6 |
| 20260905002024 | 62 | 196 | 0.0 | 3.0 | 0.00 | 0.20 | 0.05 | 55 | 1018.6 |
| 20260905001522 | 63 | 204 | 1.0 | 3.0 | 0.00 | 0.20 | 0.05 | 57 | 1018.6 |
| 20260905001029 | 63 | 185 | 0.0 | 5.0 | 0.00 | 0.20 | 0.05 | 57 | 1018.6 |
| 20260905000541 | 63 | 218 | 2.0 | 5.0 | 0.00 | 0.20 | 0.05 | 56 | 1018.7 |
| 20260905000033 | 63 | 213 | 3.0 | 5.0 | 0.00 | 0.20 | 0.05 | 55 | 1018.7 |
| 20260904235525 | 63 | 208 | 1.0 | 5.0 | 0.00 | 0.20 | 0.05 | 57 | 1018.7 |
| 20260904235038 | 63 | 246 | 2.0 | 5.0 | 0.00 | 0.20 | 0.05 | 57 | 1018.7 |
| 20260904234530 | 64 | 230 | 2.0 | 5.0 | 0.00 | 0.20 | 0.05 | 57 | 1018.6 |
| 20260904234038 | 64 | 245 | 1.0 | 4.0 | 0.00 | 0.20 | 0.05 | 56 | 1018.7 |
| 20260904233527 | 63 | 234 | 2.0 | 5.0 | 0.00 | 0.20 | 0.05 | 57 | 1018.5 |
| 20260904233023 | 63 | 211 | 2.0 | 4.0 | 0.00 | 0.20 | 0.05 | 57 | 1018.6 |
| 20260904232534 | 63 | 242 | 2.0 | 4.0 | 0.00 | 0.20 | 0.05 | 58 | 1018.6 |
| 20260904232021 | 62 | 223 | 1.0 | 4.0 | 0.00 | 0.20 | 0.05 | 59 | 1018.6 |
| 20260904231518 | 62 | 233 | 2.0 | 4.0 | 0.00 | 0.20 | 0.05 | 60 | 1018.5 |
| 20260904231030 | 63 | 214 | 2.0 | 4.0 | 0.00 | 0.20 | 0.05 | 58 | 1018.6 |
| 20260904230537 | 63 | 220 | 2.0 | 4.0 | 0.00 | 0.20 | 0.05 | 59 | 1018.7 |
| 20260904230056 | 62 | 237 | 1.0 | 4.0 | 0.00 | 0.20 | 0.05 | 58 | 1018.8 |
| 20260904225523 | 62 | 221 | 2.0 | 4.0 | 0.00 | 0.20 | 0.05 | 58 | 1018.8 |
| 20260904225031 | 62 | 237 | 2.0 | 4.0 | 0.00 | 0.20 | 0.05 | 58 | 1018.7 |
| 20260904224529 | 62 | 209 | 2.0 | 4.0 | 0.00 | 0.20 | 0.05 | 60 | 1018.8 |
| 20260904224021 | 61 | 213 | 2.0 | 4.0 | 0.00 | 0.20 | 0.05 | 58 | 1018.8 |
| 20260904223530 | 62 | 207 | 3.0 | 4.0 | 0.00 | 0.20 | 0.05 | 59 | 1018.8 |
| 20260904223026 | 61 | 251 | 2.0 | 5.0 | 0.00 | 0.20 | 0.05 | 59 | 1018.9 |
| 20260904222533 | 62 | 215 | 3.0 | 4.0 | 0.00 | 0.20 | 0.05 | 61 | 1019.0 |
| 20260904222024 | 62 | 219 | 0.0 | 4.0 | 0.00 | 0.20 | 0.05 | 60 | 1018.9 |
| 20260904221523 | 62 | 203 | 0.0 | 3.0 | 0.00 | 0.20 | 0.05 | 63 | 1019.0 |
| 20260904221130 | 62 | 263 | 0.0 | 3.0 | 0.00 | 0.20 | 0.05 | 63 | 1018.9 |
| 20260904220538 | 62 | 277 | 0.0 | 2.0 | 0.00 | 0.20 | 0.05 | 64 | 1019.0 |
| 20260904220035 | 60 | 224 | 0.0 | 3.0 | 0.00 | 0.20 | 0.05 | 67 | 1019.0 |
| 20260904215524 | 60 | 230 | 0.0 | 3.0 | 0.00 | 0.20 | 0.05 | 64 | 1019.1 |
| 20260904215032 | 61 | 176 | 0.0 | 0.0 | 0.00 | 0.20 | 0.05 | 66 | 1019.1 |
| 20260904214528 | 61 | 172 | 0.0 | 1.0 | 0.00 | 0.20 | 0.05 | 66 | 1019.1 |
| 20260904214037 | 61 | 209 | 0.0 | 1.0 | 0.00 | 0.20 | 0.05 | 65 | 1019.1 |
| 20260904213529 | 60 | 106 | 0.0 | 1.0 | 0.00 | 0.20 | 0.05 | 65 | 1019.3 |
| 20260904213026 | 60 | 166 | 0.0 | 0.0 | 0.00 | 0.20 | 0.05 | 64 | 1019.2 |
| 20260904212534 | 59 | 147 | 0.0 | 0.0 | 0.00 | 0.20 | 0.05 | 65 | 1019.2 |
| 20260904212023 | 59 | 169 | 0.0 | 2.0 | 0.00 | 0.20 | 0.05 | 69 | 1019.3 |
| 20260904211518 | 58 | 232 | 0.0 | 3.0 | 0.00 | 0.20 | 0.05 | 70 | 1019.3 |
| 20260904211029 | 59 | 175 | 0.0 | 3.0 | 0.00 | 0.20 | 0.05 | 68 | 1019.3 |
| 20260904210538 | 59 | 167 | 0.0 | 3.0 | 0.00 | 0.20 | 0.05 | 69 | 1019.3 |
| 20260904210030 | 58 | 185 | 0.0 | 0.0 | 0.00 | 0.20 | 0.05 | 71 | 1019.3 |
| 20260904205522 | 58 | 216 | 0.0 | 0.0 | 0.00 | 0.20 | 0.05 | 71 | 1019.3 |
| 20260904205031 | 57 | 157 | 0.0 | 0.0 | 0.00 | 0.20 | 0.05 | 73 | 1019.2 |
| 20260904204530 | 57 | 94 | 0.0 | 1.0 | 0.00 | 0.20 | 0.05 | 74 | 1019.2 |
| 20260904204036 | 57 | 126 | 0.0 | 3.0 | 0.00 | 0.20 | 0.05 | 73 | 1019.2 |
| 20260904203523 | 58 | 255 | 0.0 | 3.0 | 0.00 | 0.20 | 0.05 | 75 | 1019.1 |
| 20260904203020 | 58 | 146 | 0.0 | 5.0 | 0.00 | 0.20 | 0.05 | 75 | 1019.1 |
| 20260904202526 | 57 | 201 | 1.0 | 5.0 | 0.00 | 0.20 | 0.05 | 75 | 1019.1 |
| 20260904202021 | 58 | 108 | 0.0 | 3.0 | 0.00 | 0.20 | 0.05 | 75 | 1019.1 |
| 20260904201538 | 58 | 178 | 0.0 | 3.0 | 0.00 | 0.20 | 0.05 | 71 | 1019.0 |
| 20260904201025 | 58 | 151 | 0.0 | 4.0 | 0.00 | 0.20 | 0.05 | 73 | 1019.0 |
| 20260904200537 | 58 | 143 | 1.0 | 4.0 | 0.00 | 0.20 | 0.05 | 72 | 1019.1 |
| 20260904200034 | 59 | 115 | 0.0 | 3.0 | 0.00 | 0.20 | 0.05 | 73 | 1019.1 |
| 20260904195523 | 58 | 185 | 0.0 | 1.0 | 0.00 | 0.20 | 0.05 | 74 | 1019.0 |
| 20260904195033 | 57 | 180 | 0.0 | 1.0 | 0.00 | 0.20 | 0.05 | 76 | 1019.0 |
| 20260904194527 | 57 | 63 | 0.0 | 3.0 | 0.00 | 0.20 | 0.05 | 77 | 1018.9 |
| 20260904194019 | 57 | 117 | 0.0 | 3.0 | 0.00 | 0.20 | 0.05 | 76 | 1018.9 |
| 20260904193528 | 57 | 69 | 0.0 | 3.0 | 0.00 | 0.20 | 0.05 | 76 | 1018.9 |
| 20260904193034 | 58 | 171 | 0.0 | 3.0 | 0.00 | 0.20 | 0.05 | 73 | 1018.9 |
| 20260904192534 | 58 | 207 | 0.0 | 3.0 | 0.00 | 0.20 | 0.05 | 75 | 1018.9 |
| 20260904192022 | 58 | 212 | 1.0 | 3.0 | 0.00 | 0.20 | 0.05 | 74 | 1018.9 |
| 20260904191539 | 57 | 207 | 1.0 | 3.0 | 0.00 | 0.20 | 0.05 | 76 | 1018.9 |
| 20260904191030 | 57 | 187 | 0.0 | 2.0 | 0.00 | 0.20 | 0.05 | 77 | 1018.8 |
| 20260904190521 | 57 | 140 | 0.0 | 2.0 | 0.00 | 0.20 | 0.05 | 75 | 1018.8 |
| 20260904190039 | 57 | 174 | 0.0 | 1.0 | 0.00 | 0.20 | 0.05 | 73 | 1018.8 |
| 20260904185526 | 57 | 175 | 0.0 | 3.0 | 0.00 | 0.20 | 0.05 | 74 | 1018.9 |
| 20260904185036 | 57 | 184 | 0.0 | 3.0 | 0.00 | 0.20 | 0.05 | 77 | 1018.9 |
| 20260904184531 | 56 | 154 | 0.0 | 1.0 | 0.00 | 0.20 | 0.05 | 80 | 1018.7 |
| 20260904184022 | 56 | 182 | 0.0 | 1.0 | 0.00 | 0.20 | 0.05 | 78 | 1018.8 |
| 20260904183533 | 56 | 76 | 0.0 | 2.0 | 0.00 | 0.20 | 0.05 | 80 | 1018.8 |
| 20260904183028 | 56 | 79 | 0.0 | 3.0 | 0.00 | 0.20 | 0.05 | 81 | 1018.7 |
| 20260904182536 | 55 | 84 | 1.0 | 3.0 | 0.00 | 0.20 | 0.05 | 82 | 1018.7 |
| 20260904182028 | 55 | 311 | 0.0 | 0.0 | 0.00 | 0.20 | 0.05 | 83 | 1018.5 |
| 20260904181524 | 54 | 298 | 0.0 | 0.0 | 0.00 | 0.20 | 0.05 | 83 | 1018.6 |
| 20260904181032 | 54 | 315 | 0.0 | 0.0 | 0.00 | 0.20 | 0.05 | 84 | 1018.6 |
| 20260904180526 | 54 | 13 | 0.0 | 0.0 | 0.00 | 0.20 | 0.05 | 85 | 1018.6 |
| 20260904180021 | 54 | 13 | 0.0 | 0.0 | 0.00 | 0.20 | 0.05 | 85 | 1018.6 |
| 20260904175529 | 54 | 16 | 0.0 | 0.0 | 0.00 | 0.20 | 0.05 | 86 | 1018.4 |
| 20260904175024 | 54 | 17 | 0.0 | 0.0 | 0.00 | 0.20 | 0.05 | 85 | 1018.4 |
| 20260904174537 | 53 | 17 | 0.0 | 0.0 | 0.00 | 0.20 | 0.05 | 86 | 1018.3 |
| 20260904174026 | 53 | 54 | 0.0 | 0.0 | 0.00 | 0.20 | 0.05 | 85 | 1018.2 |
| 20260904173536 | 53 | 51 | 0.0 | 0.0 | 0.00 | 0.20 | 0.05 | 86 | 1018.3 |
| 20260904173032 | 53 | 61 | 0.0 | 0.0 | 0.00 | 0.20 | 0.05 | 86 | 1018.1 |
| 20260904172523 | 53 | 63 | 0.0 | 0.0 | 0.00 | 0.20 | 0.05 | 86 | 1018.1 |
| 20260904172031 | 53 | 57 | 0.0 | 0.0 | 0.00 | 0.20 | 0.05 | 86 | 1018.1 |
| 20260904171527 | 53 | 74 | 0.0 | 0.0 | 0.00 | 0.20 | 0.05 | 87 | 1018.1 |
| 20260904171037 | 53 | 65 | 0.0 | 0.0 | 0.00 | 0.20 | 0.05 | 87 | 1018.0 |
| 20260904170525 | 53 | 69 | 0.0 | 3.0 | 0.00 | 0.20 | 0.05 | 87 | 1017.9 |
| 20260904170018 | 53 | 82 | 0.0 | 5.0 | 0.00 | 0.20 | 0.05 | 88 | 1017.8 |
| 20260904165529 | 53 | 65 | 3.0 | 5.0 | 0.00 | 0.20 | 0.05 | 87 | 1017.8 |
| 20260904165022 | 53 | 78 | 0.0 | 1.0 | 0.00 | 0.20 | 0.05 | 87 | 1017.8 |
| 20260904164536 | 53 | 61 | 0.0 | 0.0 | 0.00 | 0.20 | 0.05 | 87 | 1017.7 |
| 20260904164027 | 53 | 66 | 0.0 | 0.0 | 0.00 | 0.20 | 0.05 | 87 | 1017.7 |
| 20260904163535 | 53 | 134 | 0.0 | 0.0 | 0.00 | 0.20 | 0.05 | 88 | 1017.7 |
| 20260904163031 | 53 | 134 | 0.0 | 0.0 | 0.00 | 0.20 | 0.05 | 88 | 1017.6 |
| 20260904162522 | 53 | 170 | 0.0 | 0.0 | 0.00 | 0.20 | 0.05 | 89 | 1017.6 |
| 20260904162032 | 52 | 156 | 0.0 | 0.0 | 0.00 | 0.20 | 0.05 | 89 | 1017.4 |
| 20260904161528 | 52 | 78 | 0.0 | 0.0 | 0.00 | 0.20 | 0.05 | 90 | 1017.4 |
| 20260904161035 | 52 | 78 | 0.0 | 0.0 | 0.00 | 0.20 | 0.05 | 90 | 1017.4 |
| 20260904160525 | 52 | 78 | 0.0 | 0.0 | 0.01 | 0.20 | 0.05 | 90 | 1017.2 |
| 20260904160020 | 52 | 78 | 0.0 | 0.0 | 0.01 | 0.20 | 0.05 | 90 | 1017.3 |
| 20260904155532 | 52 | 78 | 0.0 | 0.0 | 0.01 | 0.20 | 0.05 | 90 | 1017.2 |
| 20260904155041 | 52 | 81 | 0.0 | 0.0 | 0.01 | 0.20 | 0.05 | 91 | 1017.2 |
| 20260904154533 | 51 | 82 | 0.0 | 0.0 | 0.01 | 0.20 | 0.05 | 91 | 1017.2 |
| 20260904154028 | 51 | 82 | 0.0 | 0.0 | 0.01 | 0.20 | 0.05 | 92 | 1017.2 |
| 20260904153537 | 51 | 69 | 0.0 | 0.0 | 0.01 | 0.20 | 0.05 | 92 | 1017.2 |
| 20260904153048 | 51 | 59 | 0.0 | 0.0 | 0.01 | 0.20 | 0.05 | 92 | 1017.0 |
| 20260904152523 | 51 | 270 | 0.0 | 3.0 | 0.01 | 0.20 | 0.05 | 92 | 1017.1 |
| 20260904152035 | 51 | 246 | 0.0 | 3.0 | 0.01 | 0.20 | 0.05 | 92 | 1017.1 |
| 20260904151531 | 51 | 241 | 0.0 | 0.0 | 0.01 | 0.20 | 0.05 | 92 | 1017.1 |
| 20260904151019 | 51 | 243 | 0.0 | 0.0 | 0.01 | 0.20 | 0.05 | 92 | 1017.1 |
| 20260904150530 | 51 | 243 | 0.0 | 0.0 | 0.00 | 0.19 | 0.04 | 92 | 1017.0 |
| 20260904150028 | 51 | 220 | 0.0 | 0.0 | 0.00 | 0.19 | 0.04 | 92 | 1016.9 |
| 20260904145534 | 50 | 96 | 0.0 | 2.0 | 0.00 | 0.19 | 0.04 | 92 | 1016.9 |
| 20260904145022 | 50 | 74 | 0.0 | 6.0 | 0.01 | 0.19 | 0.04 | 93 | 1016.8 |
| 20260904144539 | 50 | 80 | 1.0 | 6.0 | 0.01 | 0.19 | 0.04 | 93 | 1016.8 |
| 20260904144027 | 50 | 84 | 2.0 | 6.0 | 0.01 | 0.19 | 0.04 | 93 | 1016.6 |
| 20260904143519 | 50 | 92 | 2.0 | 6.0 | 0.01 | 0.19 | 0.04 | 93 | 1016.5 |
| 20260904143033 | 50 | 105 | 2.0 | 5.0 | 0.02 | 0.19 | 0.04 | 93 | 1016.4 |
| 20260904142526 | 50 | 76 | 3.0 | 5.0 | 0.02 | 0.19 | 0.04 | 93 | 1016.4 |
| 20260904142034 | 50 | 71 | 3.0 | 5.0 | 0.02 | 0.19 | 0.04 | 93 | 1016.4 |
| 20260904141534 | 50 | 58 | 4.0 | 5.0 | 0.02 | 0.19 | 0.04 | 93 | 1016.3 |
| 20260904141020 | 50 | 78 | 2.0 | 5.0 | 0.02 | 0.19 | 0.04 | 93 | 1016.2 |
| 20260904140531 | 50 | 68 | 3.0 | 5.0 | 0.03 | 0.19 | 0.04 | 93 | 1016.2 |
| 20260904140025 | 50 | 82 | 2.0 | 6.0 | 0.03 | 0.19 | 0.04 | 93 | 1016.2 |
| 20260904135533 | 50 | 82 | 1.0 | 4.0 | 0.04 | 0.20 | 0.04 | 93 | 1016.1 |
| 20260904135022 | 50 | 80 | 2.0 | 4.0 | 0.03 | 0.19 | 0.03 | 93 | 1016.0 |
| 20260904134526 | 50 | 89 | 2.0 | 4.0 | 0.03 | 0.19 | 0.03 | 93 | 1016.0 |
| 20260904134031 | 50 | 71 | 2.0 | 4.0 | 0.03 | 0.19 | 0.03 | 92 | 1015.9 |
| 20260904133519 | 51 | 86 | 1.0 | 3.0 | 0.03 | 0.19 | 0.03 | 92 | 1015.9 |
| 20260904133034 | 51 | 90 | 1.0 | 3.0 | 0.02 | 0.18 | 0.02 | 92 | 1015.8 |
| 20260904132526 | 51 | 99 | 0.0 | 0.0 | 0.02 | 0.18 | 0.02 | 92 | 1015.9 |
| 20260904132039 | 51 | 249 | 0.0 | 1.0 | 0.02 | 0.18 | 0.02 | 92 | 1015.7 |
| 20260904131533 | 51 | 238 | 0.0 | 1.0 | 0.02 | 0.18 | 0.02 | 92 | 1015.6 |
| 20260904131024 | 51 | 271 | 0.0 | 0.0 | 0.02 | 0.18 | 0.02 | 92 | 1015.5 |
| 20260904130536 | 51 | 271 | 0.0 | 3.0 | 0.01 | 0.17 | 0.01 | 91 | 1015.5 |
| 20260904130040 | 51 | 271 | 0.0 | 5.0 | 0.01 | 0.17 | 0.01 | 91 | 1015.5 |
| 20260904125536 | 51 | 272 | 2.0 | 5.0 | 0.00 | 0.17 | 0.00 | 90 | 1015.4 |
| 20260904125026 | 51 | 261 | 0.0 | 5.0 | 0.00 | 0.17 | 0.00 | 91 | 1015.5 |
| 20260904124525 | 51 | 275 | 1.0 | 4.0 | 0.00 | 0.17 | 0.00 | 91 | 1015.4 |
| 20260904124040 | 51 | 259 | 1.0 | 2.0 | 0.00 | 0.17 | 0.00 | 91 | 1015.3 |
| 20260904123522 | 51 | 248 | 0.0 | 3.0 | 0.00 | 0.17 | 0.00 | 91 | 1015.2 |
| 20260904123024 | 51 | 233 | 0.0 | 2.0 | 0.00 | 0.17 | 0.00 | 91 | 1014.9 |
| 20260904122530 | 51 | 277 | 0.0 | 3.0 | 0.00 | 0.17 | 0.00 | 91 | 1014.9 |
| 20260904122019 | 51 | 253 | 1.0 | 3.0 | 0.00 | 0.17 | 0.00 | 91 | 1014.8 |
| 20260904121537 | 51 | 277 | 0.0 | 3.0 | 0.00 | 0.17 | 0.00 | 91 | 1014.7 |
| 20260904121029 | 51 | 254 | 1.0 | 3.0 | 0.00 | 0.17 | 0.00 | 91 | 1014.7 |
| 20260904120518 | 51 | 157 | 0.0 | 2.0 | 0.00 | 0.17 | 0.00 | 91 | 1014.8 |
| 20260904120038 | 51 | 101 | 0.0 | 2.0 | 0.00 | 0.17 | 0.00 | 91 | 1014.9 |
| 20260904115524 | 51 | 101 | 0.0 | 4.0 | 0.00 | 0.17 | 0.00 | 91 | 1014.7 |
| 20260904115035 | 51 | 103 | 1.0 | 4.0 | 0.00 | 0.17 | 0.00 | 92 | 1014.7 |
| 20260904114530 | 51 | 85 | 1.0 | 3.0 | 0.00 | 0.17 | 0.00 | 92 | 1014.5 |
| 20260904114024 | 51 | 82 | 1.0 | 3.0 | 0.00 | 0.17 | 0.00 | 91 | 1014.5 |
| 20260904113531 | 51 | 85 | 0.0 | 0.0 | 0.00 | 0.17 | 0.00 | 92 | 1014.5 |
| 20260904113033 | 51 | 85 | 0.0 | 1.0 | 0.00 | 0.17 | 0.00 | 92 | 1014.5 |
| 20260904112535 | 51 | 86 | 0.0 | 1.0 | 0.00 | 0.17 | 0.00 | 92 | 1014.4 |
| 20260904112026 | 51 | 86 | 0.0 | 2.0 | 0.00 | 0.17 | 0.00 | 92 | 1014.3 |
| 20260904111522 | 51 | 90 | 0.0 | 3.0 | 0.00 | 0.17 | 0.00 | 92 | 1014.5 |
| 20260904111034 | 51 | 80 | 1.0 | 3.0 | 0.00 | 0.17 | 0.00 | 92 | 1014.4 |
| 20260904110530 | 51 | 106 | 1.0 | 3.0 | 0.00 | 0.17 | 0.00 | 92 | 1014.3 |
| 20260904110024 | 51 | 90 | 1.0 | 3.0 | 0.00 | 0.17 | 0.00 | 92 | 1014.2 |
| 20260904105534 | 51 | 74 | 1.0 | 3.0 | 0.00 | 0.17 | 0.00 | 92 | 1014.0 |
| 20260904105023 | 51 | 77 | 1.0 | 3.0 | 0.00 | 0.17 | 0.00 | 91 | 1013.9 |
| 20260904104527 | 51 | 84 | 1.0 | 3.0 | 0.00 | 0.17 | 0.00 | 91 | 1013.8 |
| 20260904104030 | 51 | 58 | 1.0 | 5.0 | 0.00 | 0.17 | 0.00 | 91 | 1013.6 |
| 20260904103519 | 51 | 62 | 2.0 | 4.0 | 0.00 | 0.17 | 0.00 | 89 | 1013.7 |
| 20260904103036 | 51 | 297 | 0.0 | 2.0 | 0.00 | 0.17 | 0.00 | 88 | 1013.8 |
| 20260904102529 | 51 | 297 | 0.0 | 2.0 | 0.00 | 0.17 | 0.00 | 88 | 1013.9 |
| 20260904102035 | 51 | 296 | 0.0 | 3.0 | 0.00 | 0.17 | 0.00 | 89 | 1014.0 |
| 20260904101533 | 51 | 296 | 2.0 | 3.0 | 0.00 | 0.17 | 0.00 | 90 | 1014.1 |
| 20260904101020 | 51 | 288 | 0.0 | 4.0 | 0.00 | 0.17 | 0.00 | 91 | 1013.9 |
| 20260904100534 | 51 | 271 | 2.0 | 4.0 | 0.00 | 0.17 | 0.00 | 91 | 1013.9 |
| 20260904100026 | 52 | 247 | 2.0 | 4.0 | 0.00 | 0.17 | 0.00 | 90 | 1013.9 |
| 20260904095520 | 52 | 271 | 0.0 | 3.0 | 0.00 | 0.18 | 0.00 | 90 | 1013.6 |
| 20260904095028 | 52 | 277 | 2.0 | 3.0 | 0.00 | 0.18 | 0.00 | 89 | 1013.5 |
| 20260904094525 | 52 | 315 | 0.0 | 0.0 | 0.00 | 0.18 | 0.00 | 89 | 1013.4 |
| 20260904094034 | 52 | 355 | 0.0 | 0.0 | 0.00 | 0.18 | 0.00 | 88 | 1013.2 |
| 20260904093523 | 52 | 355 | 0.0 | 0.0 | 0.00 | 0.18 | 0.00 | 88 | 1013.0 |
| 20260904093024 | 52 | 9 | 0.0 | 3.0 | 0.00 | 0.18 | 0.00 | 88 | 1013.0 |
| 20260904092529 | 52 | 318 | 0.0 | 8.0 | 0.00 | 0.18 | 0.00 | 88 | 1012.8 |
| 20260904092021 | 51 | 300 | 2.0 | 9.0 | 0.00 | 0.18 | 0.00 | 89 | 1012.8 |
| 20260904091521 | 51 | 286 | 3.0 | 9.0 | 0.00 | 0.18 | 0.00 | 91 | 1013.0 |
| 20260904091027 | 51 | 269 | 5.0 | 9.0 | 0.00 | 0.18 | 0.00 | 91 | 1013.0 |
| 20260904090538 | 51 | 254 | 6.0 | 9.0 | 0.00 | 0.18 | 0.00 | 90 | 1013.0 |
| 20260904090033 | 52 | 260 | 4.0 | 8.0 | 0.00 | 0.18 | 0.00 | 91 | 1013.0 |
| 20260904085521 | 52 | 277 | 3.0 | 7.0 | 0.00 | 0.18 | 0.00 | 91 | 1013.1 |
| 20260904085035 | 52 | 263 | 4.0 | 7.0 | 0.00 | 0.18 | 0.00 | 91 | 1013.1 |
| 20260904084527 | 52 | 232 | 2.0 | 8.0 | 0.00 | 0.18 | 0.00 | 92 | 1012.9 |
| 20260904084022 | 51 | 248 | 3.0 | 8.0 | 0.00 | 0.18 | 0.00 | 91 | 1012.9 |
| 20260904083531 | 52 | 279 | 3.0 | 6.0 | 0.00 | 0.18 | 0.00 | 92 | 1012.9 |
| 20260904083033 | 52 | 243 | 2.0 | 6.0 | 0.00 | 0.18 | 0.00 | 91 | 1012.9 |
| 20260904082536 | 52 | 234 | 2.0 | 6.0 | 0.00 | 0.18 | 0.00 | 92 | 1013.0 |
| 20260904082026 | 52 | 263 | 3.0 | 6.0 | 0.00 | 0.18 | 0.00 | 91 | 1012.9 |
| 20260904081522 | 52 | 212 | 2.0 | 4.0 | 0.00 | 0.18 | 0.00 | 91 | 1012.8 |
| 20260904081033 | 51 | 246 | 0.0 | 3.0 | 0.00 | 0.18 | 0.00 | 89 | 1012.8 |
| 20260904080522 | 51 | 191 | 0.0 | 2.0 | 0.00 | 0.18 | 0.00 | 89 | 1012.9 |
| 20260904080038 | 51 | 147 | 0.0 | 3.0 | 0.00 | 0.18 | 0.00 | 90 | 1012.7 |
| 20260904075528 | 51 | 51 | 0.0 | 5.0 | 0.01 | 0.18 | 0.00 | 90 | 1012.4 |
| 20260904075036 | 51 | 57 | 2.0 | 5.0 | 0.01 | 0.18 | 0.00 | 90 | 1012.4 |
| 20260904074534 | 51 | 53 | 2.0 | 4.0 | 0.02 | 0.18 | 0.00 | 91 | 1012.6 |
| 20260904074024 | 51 | 46 | 1.0 | 4.0 | 0.04 | 0.18 | 0.00 | 91 | 1012.9 |
| 20260904073519 | 51 | 103 | 1.0 | 6.0 | 0.06 | 0.18 | 0.00 | 91 | 1012.9 |
| 20260904073034 | 51 | 65 | 3.0 | 5.0 | 0.07 | 0.18 | 0.00 | 91 | 1013.1 |
| 20260904072525 | 51 | 105 | 2.0 | 6.0 | 0.08 | 0.18 | 0.00 | 91 | 1013.0 |
| 20260904072037 | 51 | 80 | 4.0 | 6.0 | 0.08 | 0.18 | 0.00 | 91 | 1012.8 |
| 20260904071530 | 51 | 78 | 2.0 | 6.0 | 0.09 | 0.18 | 0.00 | 91 | 1013.2 |
| 20260904071021 | 51 | 80 | 2.0 | 6.0 | 0.10 | 0.18 | 0.00 | 91 | 1012.9 |
| 20260904070528 | 51 | 78 | 3.0 | 5.0 | 0.10 | 0.18 | 0.00 | 91 | 1013.0 |
| 20260904070024 | 52 | 71 | 2.0 | 5.0 | 0.11 | 0.18 | 0.18 | 92 | 1013.0 |
| 20260904065534 | 52 | 55 | 1.0 | 3.0 | 0.10 | 0.17 | 0.17 | 92 | 1013.1 |
| 20260904065023 | 52 | 273 | 0.0 | 5.0 | 0.10 | 0.17 | 0.17 | 92 | 1013.2 |
| 20260904064519 | 52 | 264 | 2.0 | 5.0 | 0.10 | 0.16 | 0.16 | 91 | 1013.4 |
| 20260904064027 | 52 | 269 | 1.0 | 4.0 | 0.08 | 0.14 | 0.14 | 91 | 1013.4 |
| 20260904063540 | 53 | 252 | 1.0 | 5.0 | 0.07 | 0.12 | 0.12 | 91 | 1013.4 |
| 20260904063035 | 53 | 265 | 1.0 | 5.0 | 0.06 | 0.11 | 0.11 | 91 | 1013.3 |
| 20260904062526 | 53 | 252 | 0.0 | 5.0 | 0.05 | 0.10 | 0.10 | 90 | 1013.3 |
| 20260904062030 | 53 | 260 | 2.0 | 7.0 | 0.05 | 0.10 | 0.10 | 90 | 1013.3 |
| 20260904061540 | 53 | 265 | 3.0 | 7.0 | 0.04 | 0.09 | 0.09 | 89 | 1013.3 |
| 20260904061035 | 53 | 259 | 0.0 | 4.0 | 0.03 | 0.08 | 0.08 | 89 | 1013.4 |
| 20260904060526 | 53 | 304 | 0.0 | 4.0 | 0.03 | 0.08 | 0.08 | 89 | 1013.4 |
| 20260904060022 | 53 | 248 | 0.0 | 0.0 | 0.02 | 0.07 | 0.07 | 87 | 1013.2 |
| 20260904055531 | 53 | 109 | 0.0 | 0.0 | 0.02 | 0.07 | 0.07 | 87 | 1013.2 |
| 20260904055020 | 53 | 138 | 0.0 | 0.0 | 0.03 | 0.07 | 0.07 | 87 | 1013.1 |
| 20260904054539 | 53 | 106 | 0.0 | 3.0 | 0.02 | 0.06 | 0.06 | 86 | 1013.1 |
| 20260904054031 | 53 | 59 | 1.0 | 3.0 | 0.02 | 0.06 | 0.06 | 85 | 1013.1 |
| 20260904053536 | 54 | 54 | 0.0 | 6.0 | 0.01 | 0.05 | 0.05 | 84 | 1013.0 |
| 20260904053032 | 54 | 61 | 1.0 | 6.0 | 0.01 | 0.05 | 0.05 | 83 | 1013.0 |
| 20260904052523 | 54 | 63 | 0.0 | 5.0 | 0.01 | 0.05 | 0.05 | 83 | 1013.0 |
| 20260904052030 | 54 | 113 | 0.0 | 7.0 | 0.01 | 0.05 | 0.05 | 83 | 1012.9 |
| 20260904051525 | 54 | 85 | 2.0 | 12.0 | 0.01 | 0.05 | 0.05 | 82 | 1013.0 |
| 20260904051024 | 54 | 93 | 3.0 | 12.0 | 0.02 | 0.05 | 0.05 | 82 | 1013.0 |
| 20260904050528 | 55 | 105 | 2.0 | 5.0 | 0.02 | 0.05 | 0.05 | 81 | 1012.9 |
| 20260904050023 | 55 | 128 | 0.0 | 2.0 | 0.02 | 0.05 | 0.05 | 80 | 1012.8 |
| 20260904045535 | 55 | 83 | 0.0 | 4.0 | 0.02 | 0.05 | 0.05 | 79 | 1012.9 |
| 20260904045025 | 55 | 94 | 1.0 | 4.0 | 0.01 | 0.04 | 0.04 | 77 | 1013.0 |
| 20260904044535 | 55 | 84 | 1.0 | 6.0 | 0.01 | 0.04 | 0.04 | 76 | 1013.0 |
| 20260904044030 | 56 | 77 | 2.0 | 6.0 | 0.01 | 0.04 | 0.04 | 75 | 1013.0 |
| 20260904043520 | 57 | 57 | 2.0 | 4.0 | 0.01 | 0.04 | 0.04 | 71 | 1013.1 |
| 20260904043054 | 57 | 80 | 2.0 | 4.0 | 0.01 | 0.04 | 0.04 | 67 | 1012.9 |
| 20260904042529 | 57 | 74 | 2.0 | 6.0 | 0.01 | 0.04 | 0.04 | 68 | 1012.9 |
| 20260904042035 | 57 | 108 | 2.0 | 7.0 | 0.01 | 0.04 | 0.04 | 66 | 1012.9 |
| 20260904041532 | 57 | 105 | 4.0 | 7.0 | 0.01 | 0.04 | 0.04 | 65 | 1012.9 |
| 20260904041022 | 58 | 84 | 2.0 | 6.0 | 0.00 | 0.03 | 0.03 | 65 | 1012.9 |
| 20260904040537 | 58 | 109 | 2.0 | 6.0 | 0.00 | 0.03 | 0.03 | 62 | 1012.8 |
| 20260904040028 | 59 | 94 | 2.0 | 5.0 | 0.00 | 0.03 | 0.03 | 59 | 1012.6 |
| 20260904035519 | 59 | 55 | 3.0 | 5.0 | 0.00 | 0.21 | 0.03 | 57 | 1012.5 |
| 20260904035027 | 59 | 111 | 2.0 | 5.0 | 0.00 | 0.21 | 0.03 | 58 | 1012.5 |
| 20260904034526 | 59 | 114 | 2.0 | 4.0 | 0.00 | 0.21 | 0.03 | 63 | 1012.5 |
| 20260904034034 | 60 | 72 | 1.0 | 3.0 | 0.00 | 0.21 | 0.03 | 60 | 1012.5 |
| 20260904033525 | 60 | 80 | 0.0 | 3.0 | 0.00 | 0.21 | 0.03 | 58 | 1012.5 |
| 20260904033021 | 60 | 90 | 0.0 | 2.0 | 0.00 | 0.21 | 0.03 | 58 | 1012.5 |
| 20260904032534 | 60 | 90 | 0.0 | 3.0 | 0.00 | 0.21 | 0.03 | 57 | 1012.4 |
| 20260904032021 | 60 | 107 | 1.0 | 3.0 | 0.00 | 0.21 | 0.03 | 57 | 1012.4 |
| 20260904031518 | 60 | 72 | 0.0 | 2.0 | 0.00 | 0.21 | 0.03 | 55 | 1012.3 |
| 20260904031029 | 61 | 74 | 1.0 | 2.0 | 0.00 | 0.21 | 0.03 | 53 | 1012.3 |
| 20260904030538 | 61 | 60 | 0.0 | 3.0 | 0.00 | 0.21 | 0.03 | 53 | 1012.2 |
| 20260904030034 | 61 | 58 | 1.0 | 3.0 | 0.00 | 0.21 | 0.03 | 52 | 1012.4 |